Regional Weather Roundup
Issued by NWS

Home | Current Version | Previous Version | Text Only | Print | Product List | Glossary Off
Versions: 1 2 3 4 5 6 7 8 9 10 11 12 13 14 15 16 17 18 19 20 21 22 23 24 25 26 27 28 29 30 31 32 33 34 35 36 37 38 39 40 41 42 43 44 45 46 47 48 49 50

000
ASUS45 KPSR 280310
RWRAZ

ARIZONA HOURLY REGIONAL WEATHER ROUNDUP
NATIONAL WEATHER SERVICE PHOENIX AZ
800 PM MST TUE JUN 27 2017

NOTE: FAIR INDICATES FEW OR NO CLOUDS BELOW 12,000 FEET WITH NO
SIGNIFICANT WEATHER AND/OR OBSTRUCTIONS TO VISIBILITY.

AZZ001>003-036-280400-
NORTHWEST ARIZONA

CITY           SKY/WX    TMP DP  RH WIND       PRES   REMARKS
BULLHEAD CITY  CLEAR    108  -2   2 W6G13     29.59R
KINGMAN        CLEAR     92  13   5 SW13      29.84S
$$

AZZ004>008-015-016-018-280400-
NORTH CENTRAL ARIZONA

CITY           SKY/WX    TMP DP  RH WIND       PRES   REMARKS
GRAND CANYON   CLEAR     76   9   7 SW9       30.10R
PRESCOTT       CLEAR     81   7   6 SW7       30.01S
FLAGSTAFF      CLEAR     73   2   6 SW14      30.15S
PAYSON         PTCLDY    82  16   8 CALM      30.05S
PAGE           CLEAR     93  16   6 W9G23     29.83R
$$

AZZ009>014-017-280400-
NORTHEAST ARIZONA

CITY           SKY/WX    TMP DP  RH WIND       PRES   REMARKS
WINSLOW        CLEAR     83  17   8 SW15      29.97S
SAINT JOHNS    CLEAR     81  12   7 W17       30.04R
WINDOW ROCK    CLEAR     72  14  11 S7        30.08R
SHOW LOW       CLEAR     68  14  12 SW9       30.14R
$$

AZZ540-542>544-546-548-280400-
GREATER PHOENIX AREA

CITY           SKY/WX    TMP DP  RH WIND       PRES   REMARKS
PHOENIX        PTCLDY   103  29   7 SW9       29.66S
BUCKEYE        CLEAR     97  28   9 SW9       29.67R
GLENDALE       PTCLDY   106  23   5 S10       29.67S
LUKE AFB       CLEAR    101  31   8 SW13      29.65S
DEER VALLEY    CLEAR    101  22   6 SW7       29.69R
SCOTTSDALE     CLEAR    102  22   6 SW5       29.71S
MESA-FALCON    PTCLDY   100  30   8 SW6       29.70F
MESA-GATEWAY   PTCLDY   100  27   7 SW6       29.71S
CHANDLER       CLEAR    100  27   7 S8        29.69S
$$

AZZ539-553-280400-
SOUTHWEST MARICOPA COUNTY AND PINAL COUNTY

CITY           SKY/WX    TMP DP  RH WIND       PRES   REMARKS
CASA GRANDE    CLEAR     99  33  10 W7        29.73R
GILA BEND      CLEAR    103  23   6 W12       29.66R
$$

AZZ503-504-507>509-280400-
SOUTHEAST ARIZONA

CITY           SKY/WX    TMP DP  RH WIND       PRES   REMARKS
TUCSON         CLEAR     99  28   8 NW10      29.83S
DAVIS-MONTHAN  CLEAR     97  26   8 NW10      29.82S
RYAN FIELD     CLEAR     99  32   9 W10       29.82R
NOGALES        CLEAR     90  31  12 W6        29.96R
SIERRA VISTA   CLEAR     84  29  14 W9        30.02R
DOUGLAS        PTCLDY    89  28  11 NW12      29.95R
SAFFORD        CLEAR     94  21   7 NW14      29.83R
$$

AZZ532-280400-
SOUTHWEST ARIZONA

CITY           SKY/WX    TMP DP  RH WIND       PRES   REMARKS
YUMA           CLEAR     99  53  21 SW14      29.65R
$$

CAZ041-043-047-048-061-525>527-560>570-280400-
SOUTHERN CALIFORNIA

CITY           SKY/WX    TMP DP  RH WIND       PRES   REMARKS
DOWNTOWN L.A.  CLEAR     72  56  57 VRB3      29.83R
L.A. AIRPORT   CLEAR     66  59  78 W13       29.84S
SAN DIEGO      PTCLDY    69  62  78 NW8       29.87S
BURBANK        CLEAR     81  44  27 SE8       29.83R
ONTARIO        CLEAR     83  47  28 SW10      29.83S
RIVERSIDE      CLEAR     82  44  26 W10       29.83R
PALM SPRINGS   CLEAR    101  25   7 W16G33    29.66R
EL CENTRO NAS  CLEAR     99  19   5 W22       29.65S
IMPERIAL       PTCLDY    97  34  11 SW15      29.63R
BLYTHE         PTCLDY   105  21   5 SW18      29.61S
NEEDLES        PTCLDY   109  -5   1 SW12      29.61S
$$

NVZ020-UTZ003-280400-
SOUTHERN NEVADA-UTAH

CITY           SKY/WX    TMP DP  RH WIND       PRES   REMARKS
LAS VEGAS      CLEAR    102   5   3 SW9       29.68F
SALT LAKE CITY PTCLDY    84  33  16 N5        29.84F
$$

NMZ009-TXZ055-280400-
NEW MEXICO-WEST TEXAS

CITY           SKY/WX    TMP DP  RH WIND       PRES   REMARKS
ALBUQUERQUE    PTCLDY    80  41  24 S21G33    29.96S
EL PASO        PTCLDY    90  52  27 SE9       29.92S
$$


........................KEY........................
SKY/WX - SKY CONDITION/WEATHER
TMP    - TEMPERATURE IN FAHRENHEIT
DP     - DEW POINT IN FAHRENHEIT
RH     - RELATIVE HUMIDITY IN PERCENT
WIND   - DIRECTION AND SPEED IN MILES PER HOUR (MPH)
VRB    - VARIABLE WIND DIRECTION
PRES   - MEAN SEA LEVEL PRESSURE IN INCHES OF MERCURY
         F - FALLING PRESSURE   R - RISING PRESSURE
         S - STEADY PRESSURE
VSB    - VISIBILITY IN MILES
HX     - HEAT INDEX IN FAHRENHEIT
WCI    - WIND CHILL INDEX IN FAHRENHEIT
TC     - TEMPERATURE IN CELSIUS WHICH IS ALSO KNOWN AS
         TEMPERATURE IN CENTIGRADE
AFB    - AIR FORCE BASE
         LUKE AFB IS LUKE AIR FORCE BASE
         DAVIS-MONTHAN IS DAVIS-MONTHAN AIR FORCE BASE
NAS    - NAVAL AIR STATION
         EL CENTRO NAS IS EL CENTRO NAVAL AIR STATION
N/A    - NOT AVAILABLE




USA.gov is the U.S. government's official web portal to all federal, state and local government web resources and services.